Location: Proctor
(47.8934°N, 114.3048°W)
Time: 18:26:18
(UTC+00:00)

Transit 4A - Pass Details

Date: 15 May 2025
Orbit: 866 x 975 km, 66.8° (Epoch: 13 June)

Event Time Altitude Azimuth Distance (km) Brightness Sun altitude
Rises 10:56:11 0° 326° (NW) 3,601 11.1 -9.2°
Reaches altitude 10° 10:58:50 10° 331° (NNW) 2,637 10.4 -8.9°
Maximum altitude 11:04:49 52° 48° (NE) 1,117 8.9 -8.2°
Drops below altitude 10° 11:10:35 10° 124° (SE) 2,552 10.4 -7.4°
Sets 11:13:06 0° 130° (SE) 3,475 11.1 -7.1°
